Location: Bégole
(43.1574°N, 0.3291°E)
Time: 20:14:37
(UTC+00:00)

Cosmos 1892 - Pass Details

Date: 28 January 2023
Orbit: 487 x 506 km, 82.5° (Epoch: 22 March)

Event Time Altitude Azimuth Distance (km) Brightness Sun altitude
Rises 18:28:33 0° 170° (S) 2,555 6.2 -15.3°
Reaches altitude 10° 18:30:42 10° 163° (SSE) 1,682 5.2 -15.7°
Maximum altitude 18:34:10 40° 93° (E) 744 3.0 -16.3°
Enters shadow 18:35:04 34° 57° (ENE) 843 3.3 -16.5°
